Location: Newark
(42.9858°N, 0.6717°E)
Time: 06:32:40
(UTC+00:00)

S-56A Canister/Altair - Pass Details

Date: 25 November 2019
Orbit: 633 x 2499 km, 38.9° (Epoch: 06 December)

Event Time Altitude Azimuth Distance (km) Brightness Sun altitude
Rises 14:00:56 0° 224° (SW) 6,095 13.7 18.9°
Reaches altitude 10° 14:05:23 10° 219° (SW) 4,961 14.1 18.5°
Maximum altitude 14:17:53 44° 154° (SSE) 2,511 10.7 17.1°
Drops below altitude 10° 14:26:57 10° 87° (E) 3,643 10.6 16.1°
Sets 14:29:41 0° 81° (E) 4,386 11.0 15.8°
